[[{"header":{"parameterUnit":"m.s-1","parameterCategory":2,"la1":30.2991,"la2":30.254,"lo1":-89.0895,"lo2":-89.0444,"dy":0.0017,"dx":0.0017,"nx":28,"ny":28,"refTime":"2024-12-15T03:00:00:Z","depth":"0","parameterNumber":2,"parameterNumberName":"U-component_of_CURRENTS"},"data":[0,0,0,0,0,0,0,0,0,0,0,0,0,0,0,0,0,0,0,0,0,0,0,0,0,0,0,0,0,0,0,0,0,0,0,0,0,0,0,0,0,0,0,0,0,0,0,0,0,0,0,0,0,0,0,0,0,0,-0.255,-0.255,0,-0.2555,-0.2555,-0.2555,-0.2515,-0.2514,-0.2513,-0.2513,-0.2447,-0.2446,-0.2445,0,0,0,0,0,0,0,0,0,0,0,0,0,-0.2493,-0.2494,-0.255,-0.255,-0.255,-0.2555,-0.2555,-0.2555,-0.2515,-0.2514,-0.2513,-0.2512,-0.2447,-0.2446,-0.2445,0,0,0,0,0,0,0,0,0,0,0,0,0,-0.2508,-0.2495,-0.255,-0.2533,-0.2532,-0.2555,-0.2555,-0.2555,-0.2515,-0.2514,-0.2513,-0.2512,-0.2447,-0.2446,-0.2445,-0.2461,0,0,-0.244,-0.244,0,0,0,0,0,0,0,0,-0.2507,-0.2509,-0.2535,-0.2535,-0.2533,-0.2536,-0.2511,-0.2521,-0.2516,-0.2519,-0.2513,-0.2511,-0.2473,-0.2469,-0.247,-0.2458,-0.2455,-0.244,-0.2439,-0.2439,-0.2438,0,0,0,0,0,0,0,-0.2506,-0.2509,-0.2549,-0.2536,-0.2535,-0.2522,-0.2522,-0.2513,-0.2499,-0.2518,-0.2516,-0.2522,-0.2471,-0.2471,-0.2468,-0.2454,-0.244,-0.2439,-0.2438,-0.2437,-0.2453,-0.2455,0,0,0,0,0,0,-0.2513,-0.2508,-0.2549,-0.2549,-0.252,-0.2524,-0.2525,-0.2534,-0.2501,-0.2496,-0.2523,-0.252,-0.2475,-0.247,-0.2465,-0.2484,-0.2439,-0.2437,-0.2436,-0.2452,-0.2454,-0.2455,0,0,0,0,0,0,-0.2512,-0.2517,-0.2549,-0.2531,-0.2534,-0.2527,-0.2538,-0.2535,-0.2531,-0.2506,-0.2498,-0.2522,-0.2473,-0.2467,-0.2463,-0.248,-0.2437,-0.2435,-0.2451,-0.2453,-0.2454,-0.2519,0,0,0,0,0,0,-0.2511,-0.2517,-0.2521,-0.2532,-0.2536,-0.2568,-0.2539,-0.2536,-0.2538,-0.2534,-0.2503,-0.2495,-0.2472,-0.2465,-0.2461,-0.2478,-0.2434,-0.2449,-0.2451,-0.2454,-0.2516,-0.2523,-0.253,0,0,0,0,0,-0.2509,-0.2525,-0.2521,-0.2526,-0.2544,-0.257,-0.2571,-0.2558,-0.2539,-0.2548,-0.2526,-0.2496,-0.2478,-0.2465,-0.246,-0.2477,-0.2448,-0.2451,-0.2454,-0.2512,-0.2522,-0.253,0,0,0,0,0,0,-0.2499,-0.2523,-0.2519,-0.254,-0.2556,-0.2564,-0.2569,-0.2563,-0.2554,-0.2544,-0.2512,-0.2505,-0.2507,-0.2488,-0.2475,-0.249,-0.2458,-0.246,-0.2505,-0.2513,-0.252,-0.2525,-0.2433,0,0,0,0,0,-0.2502,-0.2517,-0.254,-0.2553,-0.2564,-0.2567,-0.2573,-0.257,-0.2568,-0.2562,-0.2542,-0.2524,-0.2519,-0.2511,-0.2501,-0.251,-0.2487,-0.2518,-0.2526,-0.2532,-0.2534,-0.2525,-0.2531,-0.2465,-0.2465,-0.2465,0,0,-0.2499,-0.2515,-0.2522,-0.2552,-0.2559,-0.2588,-0.2566,-0.2583,-0.2602,-0.2557,-0.2565,-0.2547,-0.2527,-0.2537,-0.2537,-0.252,-0.2539,-0.2535,-0.2541,-0.2539,-0.2529,-0.2535,-0.2541,-0.2467,-0.2466,-0.2466,0,0,-0.2511,-0.252,-0.2541,-0.2563,-0.2587,-0.2597,-0.2606,-0.262,-0.262,-0.2633,-0.2607,-0.2602,-0.259,-0.2584,-0.2579,-0.2621,-0.2578,-0.2617,-0.2655,-0.2647,-0.2652,-0.2657,-0.2634,-0.2636,-0.262,-0.262,-0.262,0,-0.2504,-0.2535,-0.255,-0.2582,-0.2601,-0.2606,-0.2636,-0.265,-0.2659,-0.2662,-0.2642,-0.2634,-0.2615,-0.2631,-0.2646,-0.2636,-0.2618,-0.2623,-0.2656,-0.266,-0.2663,-0.2639,-0.264,-0.2624,-0.2623,-0.2623,-0.2623,0,-0.2536,-0.2563,-0.2579,-0.2622,-0.2647,-0.2673,-0.2703,-0.2719,-0.2715,-0.2721,-0.273,-0.2709,-0.2699,-0.2701,-0.2685,-0.2706,-0.2681,-0.2666,-0.2632,-0.2673,-0.2645,-0.2645,-0.2629,-0.2628,-0.2627,-0.2626,0,0,-0.2502,-0.2585,-0.2586,-0.2612,-0.2668,-0.2688,-0.2736,-0.2771,-0.2785,-0.2792,-0.2804,-0.2806,-0.2783,-0.2777,-0.2757,-0.2755,-0.2762,-0.2724,-0.2722,-0.2698,-0.2734,-0.2651,-0.2642,-0.2752,-0.2752,-0.2753,-0.2705,0,-0.2513,-0.2577,-0.262,-0.2671,-0.2703,-0.2741,-0.2779,-0.2813,-0.2826,-0.284,-0.2835,-0.2832,-0.2818,-0.2803,-0.2806,-0.2772,-0.2765,-0.2776,-0.2701,-0.2698,-0.2616,-0.264,-0.2531,-0.2474,-0.2704,-0.2704,-0.2704,0,-0.2519,-0.2561,-0.2618,-0.269,-0.2706,-0.2739,-0.2787,-0.2825,-0.2864,-0.2872,-0.2884,-0.2871,-0.2878,-0.2849,-0.2824,-0.283,-0.2789,-0.2762,-0.2759,-0.2657,-0.2614,-0.2471,-0.2464,-0.2446,-0.2703,-0.2703,-0.2703,0,-0.2465,-0.2553,-0.2593,-0.2619,-0.2706,-0.2729,-0.2768,-0.282,-0.2845,-0.2884,-0.2889,-0.2902,-0.2885,-0.2865,-0.2812,-0.2817,-0.2768,-0.2763,-0.2651,-0.2644,-0.2523,-0.2504,-0.2484,-0.2739,-0.274,-0.274,-0.274,0,-0.2449,-0.2474,-0.2567,-0.2584,-0.2616,-0.2693,-0.2724,-0.2768,-0.2824,-0.2842,-0.2887,-0.2887,-0.2886,-0.2859,-0.2821,-0.2728,-0.2772,-0.2656,-0.2628,-0.2542,-0.2526,-0.2481,-0.2496,-0.2738,-0.2738,-0.2739,-0.2739,0,-0.237,-0.244,-0.248,-0.2567,-0.2589,-0.2604,-0.2686,-0.2707,-0.2777,-0.2802,-0.2812,-0.2864,-0.283,-0.281,-0.276,-0.2713,-0.2593,-0.2601,-0.2493,-0.2453,-0.2328,-0.235,-0.2275,-0.2214,-0.2475,-0.2473,-0.2471,0,-0.2333,-0.2348,-0.2432,-0.2443,-0.2476,-0.2521,-0.2548,-0.2652,-0.2684,-0.2774,-0.2771,-0.2774,-0.2731,-0.2645,-0.2578,-0.2488,-0.2485,-0.2337,-0.2329,-0.2304,-0.2309,-0.2322,-0.2279,-0.2197,-0.2193,-0.2189,-0.2187,0,-0.2239,-0.2269,-0.2295,-0.2328,-0.2357,-0.2396,-0.245,-0.2473,-0.259,-0.2615,-0.2629,-0.2606,-0.2555,-0.2421,-0.2329,-0.2269,-0.2275,-0.2264,-0.2269,-0.2113,-0.2095,-0.2028,-0.2249,-0.2157,-0.216,-0.2162,-0.2164,-0.2165,-0.2141,-0.2134,-0.2169,-0.2183,-0.2218,-0.2235,-0.2222,-0.2297,-0.2316,-0.2329,-0.2418,-0.2353,-0.2298,-0.2151,-0.2097,-0.1982,-0.2046,-0.1924,-0.196,-0.1981,-0.1903,-0.2052,-0.1911,-0.1912,-0.1913,-0.1915,-0.1916,0,-0.2006,-0.2012,-0.2022,-0.2037,-0.2016,-0.2086,-0.2122,-0.2086,-0.2054,-0.2105,-0.2085,-0.2038,-0.1907,-0.1886,-0.1787,-0.1707,-0.1681,-0.1679,-0.1689,-0.1663,-0.1808,-0.1776,-0.1561,-0.1561,-0.1561,-0.1561,-0.1561,-0.1561,-0.1935,-0.189,-0.19,-0.1818,-0.1825,-0.1755,-0.174,-0.1709,-0.1715,-0.1652,-0.1657,-0.1705,-0.1697,-0.177,-0.1658,-0.1584,-0.156,-0.1499,-0.1545,-0.1676,-0.1703,-0.1729,-0.1702,-0.1476,-0.1476,-0.1333,-0.1332,-0.1332]},{"header":{"parameterUnit":"m.s-1","parameterCategory":2,"la1":30.2991,"la2":30.254,"lo1":-89.0895,"lo2":-89.0444,"dy":0.0017,"dx":0.0017,"nx":28,"ny":28,"refTime":"2024-12-15T03:00:00:Z","depth":"0","parameterNumber":3,"parameterNumberName":"V-component_of_CURRENTS"},"data":[0,0,0,0,0,0,0,0,0,0,0,0,0,0,0,0,0,0,0,0,0,0,0,0,0,0,0,0,0,0,0,0,0,0,0,0,0,0,0,0,0,0,0,0,0,0,0,0,0,0,0,0,0,0,0,0,0,0,-0.0281,-0.028,0,-0.0204,-0.0203,-0.0202,-0.0151,-0.0151,-0.0151,-0.0151,-0.0048,-0.0045,-0.0043,0,0,0,0,0,0,0,0,0,0,0,0,0,-0.0335,-0.0334,-0.0281,-0.028,-0.0279,-0.0204,-0.0203,-0.0202,-0.0151,-0.0151,-0.0151,-0.015,-0.0048,-0.0045,-0.0042,0,0,0,0,0,0,0,0,0,0,0,0,0,-0.029,-0.0334,-0.0281,-0.0246,-0.0242,-0.0205,-0.0203,-0.0202,-0.0152,-0.0151,-0.0151,-0.015,-0.0049,-0.0046,-0.0042,-0.0027,0,0,-0.0031,-0.0029,0,0,0,0,0,0,0,0,-0.0292,-0.0288,-0.0252,-0.0248,-0.0243,-0.0188,-0.0184,-0.0142,-0.0152,-0.0185,-0.0151,-0.015,-0.0093,-0.0085,-0.0071,-0.0023,-0.0018,-0.003,-0.0028,-0.0026,-0.0025,0,0,0,0,0,0,0,-0.0296,-0.029,-0.025,-0.0251,-0.0246,-0.0216,-0.021,-0.0176,-0.0141,-0.0182,-0.0178,-0.0171,-0.009,-0.0075,-0.0068,-0.0017,-0.003,-0.0027,-0.0025,-0.0023,0.0063,0.0063,0,0,0,0,0,0,-0.0309,-0.0294,-0.0252,-0.0248,-0.0268,-0.0216,-0.0209,-0.0205,-0.0142,-0.0132,-0.0171,-0.0169,-0.0082,-0.0073,-0.0065,-0.0042,-0.0026,-0.0023,-0.0021,0.0063,0.0063,0.0063,0,0,0,0,0,0,-0.0311,-0.0307,-0.0256,-0.0269,-0.0261,-0.0216,-0.0212,-0.0204,-0.0189,-0.0134,-0.0124,-0.0166,-0.0081,-0.007,-0.0035,-0.0038,-0.0021,-0.0018,0.0063,0.0063,0.0063,0.0002,0,0,0,0,0,0,-0.0313,-0.0308,-0.0312,-0.027,-0.026,-0.0242,-0.0213,-0.0203,-0.0186,-0.0182,-0.0126,-0.0116,-0.008,-0.004,-0.0031,-0.0032,-0.0015,0.0063,0.0063,0.0063,0.0004,-0.0,-0.0004,0,0,0,0,0,-0.0315,-0.0327,-0.0313,-0.0308,-0.0268,-0.0243,-0.0235,-0.0201,-0.0186,-0.0185,-0.0143,-0.0117,-0.0033,-0.0037,-0.0026,-0.0027,0.0063,0.0063,0.0063,0.0005,0.0,-0.0004,0,0,0,0,0,0,-0.0354,-0.0322,-0.0306,-0.0308,-0.028,-0.0235,-0.0232,-0.0207,-0.0173,-0.0169,-0.0116,-0.0103,-0.0074,-0.0041,-0.0048,-0.0001,0.0019,0.0022,-0.0029,-0.0033,-0.0037,-0.0052,-0.0012,0,0,0,0,0,-0.0365,-0.0366,-0.0327,-0.0329,-0.0319,-0.0276,-0.0262,-0.0239,-0.0203,-0.0188,-0.0147,-0.0102,-0.0064,-0.0043,-0.0006,0.0019,0.0061,0.0027,0.0023,0.002,0.0016,0.0076,0.0077,0.0064,0.0064,0.0064,0,0,-0.0381,-0.0364,-0.0364,-0.0338,-0.0314,-0.0308,-0.0267,-0.0253,-0.0243,-0.0182,-0.0159,-0.0116,-0.0061,-0.0032,-0.0016,-0.0005,0.0046,0.002,0.0017,0.0015,0.0076,0.0077,0.0079,0.0064,0.0064,0.0064,0,0,-0.0419,-0.0398,-0.0413,-0.0394,-0.0366,-0.0336,-0.0335,-0.0292,-0.0269,-0.024,-0.0193,-0.0152,-0.0098,-0.0055,-0.0027,-0.0028,0.0022,-0.0019,-0.0047,0.0011,0.0013,0.0015,0.0069,0.0076,-0.0018,-0.0018,-0.0018,0,-0.0441,-0.0451,-0.0413,-0.0421,-0.041,-0.0354,-0.0364,-0.0331,-0.0281,-0.0258,-0.0243,-0.015,-0.0107,-0.0059,-0.0061,-0.0037,0.0002,-0.0037,0.0006,0.0009,0.0012,0.0067,0.0076,-0.0021,-0.0021,-0.0021,-0.002,0,-0.0487,-0.0492,-0.0499,-0.0488,-0.0471,-0.0471,-0.0422,-0.0398,-0.0361,-0.0319,-0.0266,-0.0201,-0.0144,-0.0124,-0.0094,-0.0052,-0.0029,-0.0009,0.0013,0.0009,0.0068,0.0078,-0.0026,-0.0024,-0.0024,-0.0023,0,0,-0.054,-0.0536,-0.0537,-0.0543,-0.0508,-0.0499,-0.0478,-0.0436,-0.0414,-0.0357,-0.0322,-0.0254,-0.021,-0.0175,-0.0124,-0.0075,-0.0021,-0.0042,-0.0037,0.0005,0.0106,0.0157,0.0173,0.0005,0.0006,0.0007,0.0139,0,-0.0587,-0.0626,-0.06,-0.0622,-0.0635,-0.0575,-0.0559,-0.051,-0.0452,-0.0401,-0.0318,-0.0269,-0.023,-0.0203,-0.0147,-0.0048,0.0002,-0.0059,0.011,0.0115,0.0156,0.0186,0.0217,0.034,0.0149,0.0151,0.0152,0,-0.0639,-0.0657,-0.0698,-0.0689,-0.0687,-0.0684,-0.0635,-0.0611,-0.0519,-0.0472,-0.0399,-0.0329,-0.0242,-0.0214,-0.0051,-0.0092,-0.0007,0.0069,0.0076,0.0151,0.0185,0.0315,0.0366,0.049,0.0169,0.0167,0.0166,0,-0.0701,-0.0719,-0.0756,-0.0755,-0.0737,-0.0733,-0.0712,-0.0636,-0.0607,-0.0513,-0.0475,-0.036,-0.0291,-0.0174,-0.0015,-0.0034,0.0171,0.017,0.0297,0.0301,0.0376,0.0385,0.0562,0.0275,0.0274,0.0274,0.0274,0,-0.0763,-0.0787,-0.079,-0.081,-0.0837,-0.0796,-0.0793,-0.0747,-0.0673,-0.0628,-0.0521,-0.0449,-0.0279,-0.0136,-0.0014,0.0189,0.0179,0.0303,0.0344,0.0356,0.0361,0.0511,0.0545,0.0279,0.0278,0.0277,0.0276,0,-0.0824,-0.0828,-0.0868,-0.0871,-0.0872,-0.089,-0.086,-0.0845,-0.0768,-0.0703,-0.0677,-0.0502,-0.0304,-0.0123,0.0098,0.0204,0.0465,0.0446,0.0448,0.0488,0.0701,0.0729,0.0939,0.101,0.0601,0.0603,0.0605,0,-0.0859,-0.0891,-0.0924,-0.0951,-0.0955,-0.0969,-0.0972,-0.0907,-0.0877,-0.0722,-0.0691,-0.0486,-0.0313,0.0036,0.0261,0.0504,0.0581,0.0657,0.0624,0.0734,0.0796,0.0809,0.0853,0.0702,0.0704,0.0706,0.0708,0,-0.0918,-0.0931,-0.0963,-0.1028,-0.1051,-0.1066,-0.1058,-0.1049,-0.0945,-0.0852,-0.0679,-0.0524,-0.0173,0.0142,0.0452,0.0591,0.0748,0.0705,0.0829,0.0902,0.092,0.1001,0.0587,0.0726,0.0724,0.0723,0.0722,0.0721,-0.095,-0.0993,-0.1039,-0.1093,-0.1124,-0.1142,-0.114,-0.1093,-0.1017,-0.0841,-0.0684,-0.0409,0.0022,0.0481,0.0639,0.0966,0.0915,0.105,0.108,0.1087,0.1146,0.0769,0.0944,0.0943,0.0943,0.0942,0.0942,0,-0.0983,-0.1031,-0.1097,-0.1152,-0.1191,-0.119,-0.1174,-0.1127,-0.102,-0.0821,-0.0612,-0.0099,0.0322,0.0694,0.1156,0.1326,0.1345,0.1409,0.1436,0.1465,0.1156,0.1151,0.1366,0.1366,0.1366,0.1366,0.1366,0.1366,-0.1,-0.1071,-0.1109,-0.1186,-0.1222,-0.1232,-0.1214,-0.1111,-0.0965,-0.062,-0.0309,-0.0052,0.0487,0.1215,0.1631,0.1666,0.1789,0.1782,0.1848,0.1629,0.1597,0.1566,0.1572,0.1873,0.1874,0.2148,0.215,0.2153]}],[{"header":{"parameterUnit":"m.s-1","parameterCategory":2,"la1":30.2991,"la2":30.254,"lo1":-89.0895,"lo2":-89.0444,"dy":0.0017,"dx":0.0017,"nx":28,"ny":28,"refTime":"2024-12-15T03:00:00:Z","depth":"2","parameterNumber":2,"parameterNumberName":"U-component_of_CURRENTS"},"data":[0,0,0,0,0,0,0,0,0,0,0,0,0,0,0,0,0,0,0,0,0,0,0,0,0,0,0,0,0,0,0,0,0,0,0,0,0,0,0,0,0,0,0,0,0,0,0,0,0,0,0,0,0,0,0,0,0,0,-0.2219,-0.2219,0,-0.2233,-0.2233,-0.2233,-0.2208,-0.2207,-0.2206,-0.2206,-0.216,-0.2159,-0.2159,0,0,0,0,0,0,0,0,0,0,0,0,0,-0.2163,-0.2164,-0.2219,-0.2219,-0.222,-0.2233,-0.2233,-0.2233,-0.2208,-0.2207,-0.2206,-0.2205,-0.216,-0.2159,-0.2159,0,0,0,0,0,0,0,0,0,0,0,0,0,-0.2181,-0.2165,-0.2219,-0.2211,-0.221,-0.2233,-0.2233,-0.2233,-0.2208,-0.2207,-0.2206,-0.2205,-0.216,-0.2159,-0.2158,-0.2171,0,0,-0.2155,-0.2155,0,0,0,0,0,0,0,0,-0.218,-0.2183,-0.2211,-0.2211,-0.2211,-0.222,-0.2196,-0.221,-0.2208,-0.2206,-0.2206,-0.2205,-0.2177,-0.2174,-0.2176,-0.2168,-0.2166,-0.2155,-0.2155,-0.2154,-0.2154,0,0,0,0,0,0,0,-0.2179,-0.2182,-0.2222,-0.2212,-0.2212,-0.2204,-0.2205,-0.2199,-0.2193,-0.2206,-0.2205,-0.2211,-0.2176,-0.2177,-0.2175,-0.2166,-0.2155,-0.2154,-0.2154,-0.2154,-0.2177,-0.2178,0,0,0,0,0,0,-0.2184,-0.2181,-0.2221,-0.2222,-0.2196,-0.2206,-0.2207,-0.2216,-0.2195,-0.2192,-0.2212,-0.221,-0.2179,-0.2176,-0.2173,-0.2197,-0.2154,-0.2153,-0.2153,-0.2176,-0.2177,-0.2179,0,0,0,0,0,0,-0.2183,-0.2187,-0.2221,-0.2204,-0.2208,-0.2208,-0.2218,-0.2216,-0.2219,-0.22,-0.2195,-0.2216,-0.2179,-0.2174,-0.2176,-0.2195,-0.2153,-0.2152,-0.2174,-0.2176,-0.2178,-0.2238,0,0,0,0,0,0,-0.2181,-0.2187,-0.2192,-0.2204,-0.2209,-0.2242,-0.2219,-0.2218,-0.2225,-0.2223,-0.2202,-0.2197,-0.2177,-0.2178,-0.2175,-0.2192,-0.2151,-0.2173,-0.2175,-0.2177,-0.2235,-0.2242,-0.2248,0,0,0,0,0,-0.2179,-0.2194,-0.2193,-0.2197,-0.2217,-0.2243,-0.2245,-0.2239,-0.2227,-0.2236,-0.2223,-0.2197,-0.219,-0.2179,-0.2175,-0.2192,-0.2172,-0.2174,-0.2177,-0.2232,-0.2241,-0.2248,0,0,0,0,0,0,-0.217,-0.2193,-0.2192,-0.2212,-0.2229,-0.2239,-0.2247,-0.2246,-0.2244,-0.2237,-0.2212,-0.2207,-0.2216,-0.2199,-0.2187,-0.2207,-0.2177,-0.218,-0.222,-0.2228,-0.2235,-0.2238,-0.215,0,0,0,0,0,-0.2173,-0.2188,-0.221,-0.2224,-0.2235,-0.2242,-0.225,-0.2252,-0.2254,-0.2252,-0.224,-0.2228,-0.2226,-0.2223,-0.2216,-0.2228,-0.2206,-0.2238,-0.2244,-0.225,-0.2251,-0.2243,-0.2249,-0.2187,-0.2187,-0.2187,0,0,-0.2172,-0.2187,-0.2194,-0.2223,-0.2232,-0.226,-0.2244,-0.2264,-0.2283,-0.2247,-0.2262,-0.225,-0.2235,-0.2248,-0.2251,-0.2235,-0.2257,-0.2253,-0.2258,-0.2256,-0.2246,-0.2252,-0.2257,-0.2189,-0.2189,-0.2189,0,0,-0.2183,-0.2194,-0.2213,-0.2234,-0.226,-0.2271,-0.2281,-0.2299,-0.2303,-0.2321,-0.2301,-0.2302,-0.2298,-0.2293,-0.2289,-0.233,-0.2293,-0.233,-0.2364,-0.2357,-0.2361,-0.2365,-0.2346,-0.2348,-0.2333,-0.2333,-0.2333,0,-0.2179,-0.2207,-0.2222,-0.2251,-0.227,-0.228,-0.2309,-0.2324,-0.2339,-0.2346,-0.2332,-0.2335,-0.232,-0.2337,-0.2352,-0.2345,-0.2329,-0.2334,-0.2365,-0.2368,-0.2371,-0.235,-0.2351,-0.2336,-0.2336,-0.2335,-0.2335,0,-0.2207,-0.2233,-0.2248,-0.2287,-0.2313,-0.2338,-0.2369,-0.2388,-0.2391,-0.24,-0.2416,-0.2402,-0.2399,-0.2402,-0.2389,-0.2409,-0.2388,-0.2374,-0.2343,-0.2381,-0.2357,-0.2357,-0.2341,-0.2339,-0.2338,-0.2338,0,0,-0.2179,-0.2253,-0.2255,-0.2279,-0.2333,-0.2352,-0.2399,-0.2434,-0.2452,-0.2466,-0.2483,-0.249,-0.2475,-0.2471,-0.2456,-0.2454,-0.2461,-0.2427,-0.2425,-0.2405,-0.2438,-0.236,-0.2352,-0.2452,-0.2453,-0.2453,-0.2413,0,-0.219,-0.2246,-0.2284,-0.2333,-0.2363,-0.24,-0.2439,-0.2474,-0.2492,-0.2512,-0.2512,-0.2518,-0.2505,-0.2499,-0.25,-0.2469,-0.2464,-0.2473,-0.2406,-0.2404,-0.2328,-0.235,-0.2178,-0.2123,-0.2412,-0.2412,-0.2412,0,-0.2195,-0.2233,-0.2285,-0.2353,-0.2369,-0.2402,-0.2453,-0.249,-0.2533,-0.2546,-0.2563,-0.2558,-0.2566,-0.2541,-0.2518,-0.2524,-0.2488,-0.2462,-0.246,-0.2364,-0.2326,-0.2132,-0.2111,-0.2412,-0.2412,-0.2412,-0.2412,0,-0.2149,-0.2228,-0.2265,-0.229,-0.2371,-0.2397,-0.2436,-0.2491,-0.2517,-0.2561,-0.2572,-0.2588,-0.2577,-0.2558,-0.251,-0.2514,-0.2469,-0.2464,-0.2361,-0.2355,-0.2183,-0.216,-0.2442,-0.2442,-0.2442,-0.2443,-0.2443,0,-0.2135,-0.216,-0.2245,-0.2262,-0.2297,-0.2369,-0.2405,-0.2449,-0.2507,-0.2526,-0.2575,-0.2577,-0.258,-0.2555,-0.2519,-0.2433,-0.2473,-0.2366,-0.234,-0.2199,-0.218,-0.2409,-0.2406,-0.2441,-0.2441,-0.2442,-0.2442,0,-0.2067,-0.213,-0.2168,-0.2252,-0.2274,-0.2293,-0.2374,-0.2397,-0.247,-0.2495,-0.2508,-0.2559,-0.2528,-0.2515,-0.2468,-0.2422,-0.2361,-0.2318,-0.2148,-0.2104,-0.2253,-0.2253,-0.2208,-0.2205,-0.2202,-0.22,-0.2198,0,-0.2035,-0.2049,-0.2129,-0.2141,-0.2174,-0.2222,-0.2249,-0.235,-0.2378,-0.2467,-0.2463,-0.2474,-0.2431,-0.2353,-0.2287,-0.2205,-0.2276,-0.2003,-0.1982,-0.2249,-0.223,-0.2234,-0.2238,-0.1778,-0.1772,-0.1768,-0.1765,0,-0.1952,-0.1982,-0.2006,-0.2038,-0.2068,-0.2103,-0.2156,-0.2174,-0.2283,-0.2307,-0.2315,-0.2293,-0.2251,-0.2089,-0.2012,-0.1947,-0.2008,-0.1914,-0.2224,-0.187,-0.1842,-0.1823,-0.1841,-0.1728,-0.1731,-0.1734,-0.1736,-0.1738,-0.1866,-0.1859,-0.1892,-0.1906,-0.194,-0.1947,-0.1927,-0.1992,-0.2003,-0.2002,-0.2092,-0.2002,-0.1996,-0.1778,-0.1689,-0.1633,-0.1771,-0.1686,-0.1699,-0.1717,-0.1681,-0.1651,-0.1493,-0.1495,-0.1497,-0.1499,-0.1501,0,-0.1744,-0.1748,-0.1756,-0.1764,-0.174,-0.181,-0.1828,-0.1776,-0.1728,-0.1764,-0.1738,-0.1545,-0.1448,-0.1453,-0.131,-0.1286,-0.1282,-0.1229,-0.1223,-0.126,-0.1293,-0.1237,-0.093,-0.0929,-0.0927,-0.0926,0,0,-0.1679,-0.1634,-0.1637,-0.155,-0.1555,-0.1473,-0.1447,-0.1393,-0.1379,-0.1277,-0.1239,-0.1346,-0.139,-0.1153,-0.1107,-0.0993,-0.1114,-0.0942,-0.1397,-0.1426,-0.1457,-0.1552,-0.1506,0,0,0,0,0]},{"header":{"parameterUnit":"m.s-1","parameterCategory":2,"la1":30.2991,"la2":30.254,"lo1":-89.0895,"lo2":-89.0444,"dy":0.0017,"dx":0.0017,"nx":28,"ny":28,"refTime":"2024-12-15T03:00:00:Z","depth":"2","parameterNumber":3,"parameterNumberName":"V-component_of_CURRENTS"},"data":[0,0,0,0,0,0,0,0,0,0,0,0,0,0,0,0,0,0,0,0,0,0,0,0,0,0,0,0,0,0,0,0,0,0,0,0,0,0,0,0,0,0,0,0,0,0,0,0,0,0,0,0,0,0,0,0,0,0,-0.0265,-0.0264,0,-0.0196,-0.0195,-0.0194,-0.015,-0.015,-0.015,-0.015,-0.0056,-0.0054,-0.0052,0,0,0,0,0,0,0,0,0,0,0,0,0,-0.0312,-0.0312,-0.0265,-0.0264,-0.0263,-0.0196,-0.0195,-0.0194,-0.015,-0.015,-0.015,-0.0149,-0.0057,-0.0054,-0.0051,0,0,0,0,0,0,0,0,0,0,0,0,0,-0.0272,-0.0312,-0.0265,-0.0234,-0.023,-0.0196,-0.0195,-0.0194,-0.015,-0.015,-0.015,-0.0149,-0.0058,-0.0054,-0.0051,-0.0036,0,0,-0.0041,-0.0039,0,0,0,0,0,0,0,0,-0.0274,-0.027,-0.0239,-0.0236,-0.0232,-0.0182,-0.0178,-0.014,-0.015,-0.018,-0.015,-0.0149,-0.0097,-0.009,-0.0077,-0.0032,-0.0028,-0.004,-0.0038,-0.0037,-0.0036,0,0,0,0,0,0,0,-0.0277,-0.0273,-0.0237,-0.0238,-0.0234,-0.0207,-0.0202,-0.017,-0.014,-0.0177,-0.0174,-0.0168,-0.0094,-0.0081,-0.0075,-0.0026,-0.004,-0.0037,-0.0035,-0.0034,0.0049,0.0049,0,0,0,0,0,0,-0.029,-0.0276,-0.0239,-0.0235,-0.0254,-0.0207,-0.0201,-0.0198,-0.0141,-0.0132,-0.0168,-0.0166,-0.0087,-0.0079,-0.0071,-0.0047,-0.0037,-0.0033,-0.0032,0.0049,0.0049,0.0049,0,0,0,0,0,0,-0.0291,-0.0287,-0.0242,-0.0254,-0.0246,-0.0207,-0.0204,-0.0197,-0.0184,-0.0134,-0.0125,-0.0163,-0.0086,-0.0076,-0.0043,-0.0043,-0.0032,-0.0029,0.0049,0.0049,0.0049,-0.0,0,0,0,0,0,0,-0.0293,-0.0288,-0.0293,-0.0255,-0.0246,-0.0229,-0.0204,-0.0196,-0.018,-0.0177,-0.0126,-0.0117,-0.0085,-0.0048,-0.0039,-0.0038,-0.0026,0.0049,0.0049,0.0049,0.0001,-0.0002,-0.0004,0,0,0,0,0,-0.0295,-0.0305,-0.0293,-0.0289,-0.0253,-0.0229,-0.0222,-0.0192,-0.0181,-0.0179,-0.0141,-0.0119,-0.004,-0.0045,-0.0035,-0.0033,0.0049,0.0049,0.0049,0.0003,-0.0001,-0.0004,0,0,0,0,0,0,-0.0328,-0.03,-0.0287,-0.0288,-0.0263,-0.0222,-0.0219,-0.0198,-0.0167,-0.0164,-0.0116,-0.0105,-0.0076,-0.0047,-0.0054,-0.0007,0.0008,0.001,-0.0031,-0.0034,-0.0037,-0.0052,-0.0023,0,0,0,0,0,-0.0338,-0.0339,-0.0304,-0.0306,-0.0296,-0.0259,-0.0246,-0.0226,-0.0193,-0.0179,-0.0142,-0.0102,-0.0067,-0.0046,-0.0013,0.0013,0.0049,0.0022,0.0019,0.0017,0.0012,0.0068,0.007,0.005,0.005,0.005,0,0,-0.0352,-0.0337,-0.0337,-0.0313,-0.0292,-0.0284,-0.025,-0.0237,-0.0226,-0.0174,-0.015,-0.0113,-0.0063,-0.0034,-0.0018,-0.0009,0.0041,0.0017,0.0014,0.0011,0.0069,0.007,0.0072,0.0051,0.0051,0.0051,0,0,-0.0383,-0.0366,-0.0378,-0.0361,-0.0335,-0.0309,-0.0308,-0.0269,-0.0247,-0.022,-0.0179,-0.014,-0.009,-0.005,-0.0024,-0.0021,0.0022,-0.0012,-0.0034,0.002,0.0022,0.0024,0.007,0.0077,-0.0011,-0.0011,-0.0011,0,-0.0402,-0.041,-0.0377,-0.0382,-0.0373,-0.0324,-0.0332,-0.03,-0.0255,-0.0234,-0.0221,-0.0135,-0.0096,-0.0048,-0.0049,-0.0027,0.0007,-0.0028,0.0016,0.0019,0.0022,0.0069,0.0077,-0.0013,-0.0013,-0.0013,-0.0012,0,-0.044,-0.0444,-0.0449,-0.0439,-0.0423,-0.0422,-0.0376,-0.0353,-0.0321,-0.0284,-0.0234,-0.0174,-0.0122,-0.0102,-0.0075,-0.0033,-0.0016,0.0003,0.0021,0.0021,0.007,0.008,-0.0017,-0.0016,-0.0015,-0.0014,0,0,-0.0486,-0.048,-0.0481,-0.0488,-0.0454,-0.0446,-0.0423,-0.0385,-0.0366,-0.0311,-0.0279,-0.0213,-0.0174,-0.0143,-0.0096,-0.0049,0.0001,-0.0022,-0.0018,0.0017,0.0116,0.0149,0.0163,0.0026,0.0027,0.0028,0.0141,0,-0.0527,-0.0559,-0.0535,-0.0553,-0.0565,-0.051,-0.0493,-0.0448,-0.0397,-0.035,-0.0272,-0.0228,-0.019,-0.0166,-0.0112,-0.0025,0.0023,-0.0032,0.0116,0.012,0.0146,0.0174,0.0141,0.0241,0.015,0.0152,0.0153,0,-0.0572,-0.0588,-0.0623,-0.0615,-0.0613,-0.0611,-0.0569,-0.0545,-0.0459,-0.0418,-0.0349,-0.0284,-0.0201,-0.0174,-0.0025,-0.0062,0.0016,0.0083,0.0089,0.0144,0.0172,0.0228,0.0261,0.0169,0.0167,0.0166,0.0165,0,-0.0632,-0.0645,-0.0678,-0.0677,-0.066,-0.0657,-0.0639,-0.057,-0.0545,-0.0458,-0.0425,-0.0315,-0.0255,-0.0142,0.0001,-0.0013,0.0167,0.0171,0.0277,0.028,0.0293,0.0295,0.027,0.027,0.027,0.027,0.0269,0,-0.0688,-0.071,-0.0712,-0.0731,-0.076,-0.072,-0.0721,-0.0679,-0.0613,-0.0579,-0.047,-0.0409,-0.0245,-0.0117,-0.0001,0.0176,0.0173,0.0281,0.0317,0.0275,0.0274,0.0242,0.0237,0.0274,0.0273,0.0272,0.0271,0,-0.0748,-0.0749,-0.0788,-0.0791,-0.0794,-0.0813,-0.079,-0.0781,-0.0709,-0.0658,-0.0633,-0.0471,-0.0296,-0.0123,0.0079,0.0179,0.0338,0.0397,0.0335,0.0362,0.0411,0.0402,0.0523,0.0525,0.0527,0.0529,0.053,0,-0.0781,-0.0811,-0.0845,-0.0873,-0.0879,-0.0895,-0.0902,-0.0843,-0.0821,-0.0688,-0.0664,-0.0482,-0.0334,-0.0017,0.0191,0.0416,0.0406,0.0503,0.0474,0.0417,0.044,0.0428,0.0417,0.0472,0.0473,0.0473,0.0474,0,-0.0842,-0.0854,-0.0886,-0.0952,-0.0979,-0.0998,-0.0997,-0.0994,-0.0905,-0.0829,-0.0688,-0.0556,-0.0242,0.0017,0.0305,0.0427,0.0464,0.0523,0.0501,0.0409,0.0377,0.0396,0.0385,0.0479,0.0479,0.0478,0.0478,0.0478,-0.0878,-0.092,-0.0966,-0.1022,-0.1057,-0.1083,-0.1087,-0.1052,-0.0997,-0.0853,-0.0724,-0.0489,-0.0249,0.0177,0.0372,0.0552,0.055,0.0582,0.0577,0.0571,0.0541,0.0514,0.0636,0.0637,0.0637,0.0637,0.0638,0,-0.0917,-0.0963,-0.1029,-0.1088,-0.1133,-0.1132,-0.113,-0.1093,-0.1014,-0.0853,-0.0683,-0.039,-0.0095,0.0158,0.0449,0.0616,0.0588,0.0634,0.0559,0.0553,0.0548,0.0513,0.0603,0.0603,0.0604,0.0604,0,0,-0.0937,-0.1008,-0.1044,-0.1129,-0.1169,-0.119,-0.1181,-0.1096,-0.0973,-0.079,-0.0607,-0.0378,-0.0073,0.0118,0.0327,0.0476,0.0467,0.0486,0.0497,0.0378,0.0371,0.0505,0.0444,0,0,0,0,0]}],[{"header":{"parameterUnit":"m.s-1","parameterCategory":2,"la1":30.2991,"la2":30.254,"lo1":-89.0895,"lo2":-89.0444,"dy":0.0017,"dx":0.0017,"nx":28,"ny":28,"refTime":"2024-12-15T03:00:00:Z","depth":"4","parameterNumber":2,"parameterNumberName":"U-component_of_CURRENTS"},"data":[0,0,0,0,0,0,0,0,0,0,0,0,0,0,0,0,0,0,0,0,0,0,0,0,0,0,0,0,0,0,0,0,0,0,0,0,0,0,0,0,0,0,0,0,0,0,0,0,0,0,0,0,0,0,0,0,0,0,-0.1548,-0.1549,0,-0.1606,-0.1607,-0.1607,-0.1643,-0.1643,-0.1643,-0.1643,-0.1682,-0.1683,-0.1683,0,0,0,0,0,0,0,0,0,0,0,0,0,-0.1465,-0.1467,-0.1548,-0.1549,-0.155,-0.1606,-0.1607,-0.1608,-0.1642,-0.1643,-0.1643,-0.1644,-0.1682,-0.1682,-0.1683,0,0,0,0,0,0,0,0,0,0,0,0,0,-0.1509,-0.1467,-0.1548,-0.1575,-0.1578,-0.1606,-0.1607,-0.1608,-0.1642,-0.1643,-0.1643,-0.1644,-0.1681,-0.1682,-0.1683,-0.1681,0,0,-0.1687,-0.1687,0,0,0,0,0,0,0,0,-0.1506,-0.1511,-0.157,-0.1573,-0.1577,-0.1619,-0.1592,-0.1632,-0.1642,-0.1616,-0.1643,-0.1644,-0.166,-0.1663,-0.1671,-0.1683,-0.1684,-0.1687,-0.1688,-0.1688,-0.1688,0,0,0,0,0,0,0,-0.1503,-0.1509,-0.1569,-0.1571,-0.1575,-0.1584,-0.1591,-0.16,-0.1633,-0.1619,-0.1622,-0.1631,-0.1661,-0.1669,-0.1672,-0.1685,-0.1687,-0.1688,-0.1689,-0.1689,-0.1766,-0.1768,0,0,0,0,0,0,-0.1499,-0.1506,-0.1568,-0.1571,-0.1544,-0.1585,-0.1592,-0.1604,-0.1634,-0.1639,-0.163,-0.1632,-0.1667,-0.167,-0.1673,-0.1737,-0.1688,-0.1689,-0.169,-0.1765,-0.1767,-0.1768,0,0,0,0,0,0,-0.1497,-0.1504,-0.1565,-0.1541,-0.155,-0.1586,-0.1599,-0.1605,-0.1639,-0.1643,-0.1648,-0.1661,-0.1668,-0.1672,-0.1709,-0.1736,-0.169,-0.1691,-0.1763,-0.1765,-0.1767,-0.1823,0,0,0,0,0,0,-0.1494,-0.1503,-0.1521,-0.1541,-0.1551,-0.1601,-0.1599,-0.1605,-0.1643,-0.1646,-0.167,-0.1673,-0.1668,-0.1707,-0.171,-0.1737,-0.1691,-0.1761,-0.1764,-0.1767,-0.182,-0.1827,-0.1833,0,0,0,0,0,-0.1491,-0.1512,-0.1522,-0.153,-0.1571,-0.1602,-0.1608,-0.1634,-0.1644,-0.1665,-0.1685,-0.1674,-0.1725,-0.1709,-0.1712,-0.174,-0.176,-0.1763,-0.1766,-0.1817,-0.1826,-0.1833,0,0,0,0,0,0,-0.1487,-0.1518,-0.1529,-0.1559,-0.1588,-0.1609,-0.1635,-0.1649,-0.1682,-0.1692,-0.1692,-0.1697,-0.1738,-0.1733,-0.1716,-0.1771,-0.1741,-0.1744,-0.1778,-0.1786,-0.1793,-0.1788,-0.1692,0,0,0,0,0,-0.1494,-0.1518,-0.1546,-0.1573,-0.159,-0.1617,-0.1637,-0.1656,-0.1681,-0.1697,-0.1715,-0.1732,-0.1749,-0.1764,-0.1776,-0.1808,-0.1788,-0.1828,-0.1835,-0.184,-0.1838,-0.1836,-0.1842,-0.1778,-0.1778,-0.1778,0,0,-0.1501,-0.1521,-0.1536,-0.1574,-0.1599,-0.163,-0.1631,-0.1671,-0.1703,-0.1695,-0.175,-0.1759,-0.1763,-0.1799,-0.1817,-0.1802,-0.1849,-0.1844,-0.1849,-0.1844,-0.1839,-0.1845,-0.1851,-0.178,-0.178,-0.178,0,0,-0.1517,-0.1545,-0.157,-0.1597,-0.164,-0.1658,-0.1675,-0.1714,-0.1741,-0.1787,-0.1789,-0.1816,-0.1848,-0.1855,-0.186,-0.1911,-0.1884,-0.1922,-0.1954,-0.1952,-0.1957,-0.1961,-0.1944,-0.1946,-0.1926,-0.1927,-0.1927,0,-0.1526,-0.1558,-0.1583,-0.1614,-0.1642,-0.1673,-0.1708,-0.1738,-0.1787,-0.1809,-0.1814,-0.1865,-0.1871,-0.1903,-0.1924,-0.1926,-0.1916,-0.1922,-0.196,-0.1963,-0.1966,-0.1948,-0.195,-0.193,-0.1929,-0.1929,-0.1929,0,-0.1551,-0.159,-0.161,-0.1658,-0.1692,-0.1729,-0.177,-0.1812,-0.1846,-0.1869,-0.192,-0.1932,-0.1957,-0.1968,-0.1963,-0.1995,-0.1978,-0.1967,-0.1936,-0.1976,-0.1955,-0.1955,-0.1934,-0.1933,-0.1932,-0.1931,0,0,-0.1531,-0.1612,-0.1621,-0.1653,-0.172,-0.1746,-0.1807,-0.186,-0.1897,-0.1944,-0.1983,-0.2018,-0.2024,-0.203,-0.2031,-0.2034,-0.2049,-0.2017,-0.2015,-0.1994,-0.2038,-0.1904,-0.1891,-0.2048,-0.2048,-0.2049,-0.2014,0,-0.1544,-0.1605,-0.1646,-0.1711,-0.1745,-0.1799,-0.185,-0.1904,-0.1947,-0.1994,-0.2015,-0.2052,-0.2048,-0.2064,-0.207,-0.2054,-0.2053,-0.2058,-0.2007,-0.2005,-0.1876,-0.1888,-0.205,-0.2014,-0.2014,-0.2014,-0.2014,0,-0.1546,-0.1589,-0.1654,-0.1737,-0.1758,-0.1806,-0.1885,-0.1935,-0.2003,-0.2036,-0.2076,-0.2092,-0.2117,-0.2102,-0.2095,-0.2102,-0.2076,-0.2057,-0.2055,-0.1908,-0.1871,-0.1966,-0.2014,-0.2014,-0.2014,-0.2014,-0.2014,0,-0.1499,-0.1591,-0.1643,-0.1673,-0.1771,-0.1817,-0.1871,-0.1949,-0.1988,-0.2062,-0.2088,-0.2124,-0.2136,-0.2124,-0.2093,-0.2101,-0.2064,-0.2065,-0.1919,-0.191,-0.2016,-0.2012,-0.2051,-0.2051,-0.2051,-0.2051,-0.2051,0,-0.1477,-0.1521,-0.1632,-0.1658,-0.172,-0.1801,-0.1868,-0.1926,-0.2004,-0.2032,-0.2103,-0.2109,-0.2143,-0.2127,-0.2099,-0.1996,-0.2066,-0.1915,-0.1888,-0.2042,-0.2041,-0.2016,-0.2013,-0.2049,-0.205,-0.205,-0.205,0,-0.1407,-0.1485,-0.1547,-0.1661,-0.1698,-0.1742,-0.1854,-0.1889,-0.1981,-0.2018,-0.204,-0.2101,-0.2073,-0.2078,-0.2046,-0.1978,-0.1911,-0.1858,-0.2012,-0.1996,-0.1761,-0.1761,-0.1693,-0.1688,-0.1684,-0.168,-0.1677,0,-0.1372,-0.1399,-0.1525,-0.1556,-0.1611,-0.1693,-0.1737,-0.1856,-0.1882,-0.1982,-0.1972,-0.1999,-0.2015,-0.1849,-0.1886,-0.1814,-0.1792,-0.1751,-0.1765,-0.1741,-0.1723,-0.173,-0.1736,-0.167,-0.1669,-0.1668,-0.1667,0,-0.1291,-0.1351,-0.1397,-0.1464,-0.1524,-0.1576,-0.1649,-0.1655,-0.1769,-0.1882,-0.1834,-0.1812,-0.1776,-0.1742,-0.1693,-0.1649,-0.1777,-0.1706,-0.1716,-0.1728,-0.1713,-0.1701,-0.1712,-0.1652,-0.1654,-0.1655,-0.1656,0,-0.1224,-0.1234,-0.1301,-0.1341,-0.141,-0.1416,-0.1481,-0.1501,-0.1544,-0.1662,-0.1639,-0.1672,-0.1742,-0.1654,-0.1612,-0.1555,-0.1538,-0.1488,-0.1508,-0.1525,-0.1488,-0.1445,-0.1266,0,0,0,0,0,-0.1145,-0.1136,-0.1167,-0.1201,-0.1264,-0.1296,-0.1393,-0.1461,-0.1581,-0.1495,-0.1561,-0.1519,-0.1465,-0.149,-0.1392,-0.1545,-0.1548,-0.1428,-0.1503,-0.1569,-0.1586,-0.1558,0,0,0,0,0,0,-0.1091,-0.1113,-0.1118,-0.1067,-0.106,-0.1106,-0.1157,-0.1245,-0.1207,-0.1336,-0.1304,-0.1414,-0.1376,-0.1476,-0.1351,-0.136,-0.1373,-0.1468,-0.1464,-0.1559,-0.1575,-0.1589,-0.1566,0,0,0,0,0]},{"header":{"parameterUnit":"m.s-1","parameterCategory":2,"la1":30.2991,"la2":30.254,"lo1":-89.0895,"lo2":-89.0444,"dy":0.0017,"dx":0.0017,"nx":28,"ny":28,"refTime":"2024-12-15T03:00:00:Z","depth":"4","parameterNumber":3,"parameterNumberName":"V-component_of_CURRENTS"},"data":[0,0,0,0,0,0,0,0,0,0,0,0,0,0,0,0,0,0,0,0,0,0,0,0,0,0,0,0,0,0,0,0,0,0,0,0,0,0,0,0,0,0,0,0,0,0,0,0,0,0,0,0,0,0,0,0,0,0,-0.0182,-0.0181,0,-0.0138,-0.0138,-0.0137,-0.011,-0.011,-0.011,-0.011,-0.0041,-0.0039,-0.0038,0,0,0,0,0,0,0,0,0,0,0,0,0,-0.0207,-0.0207,-0.0182,-0.0181,-0.0181,-0.0138,-0.0138,-0.0137,-0.011,-0.011,-0.011,-0.011,-0.0042,-0.004,-0.0037,0,0,0,0,0,0,0,0,0,0,0,0,0,-0.0183,-0.0207,-0.0182,-0.0163,-0.0161,-0.0138,-0.0138,-0.0137,-0.011,-0.011,-0.011,-0.011,-0.0042,-0.004,-0.0037,-0.0023,0,0,-0.0029,-0.0028,0,0,0,0,0,0,0,0,-0.0184,-0.0182,-0.0166,-0.0164,-0.0162,-0.013,-0.0121,-0.0098,-0.011,-0.0129,-0.011,-0.011,-0.0069,-0.0064,-0.0056,-0.002,-0.0017,-0.0029,-0.0027,-0.0026,-0.0025,0,0,0,0,0,0,0,-0.0186,-0.0183,-0.0164,-0.0166,-0.0163,-0.0145,-0.0141,-0.0116,-0.0099,-0.0127,-0.0125,-0.0122,-0.0068,-0.0058,-0.0054,-0.0016,-0.0029,-0.0027,-0.0025,-0.0024,0.0043,0.0044,0,0,0,0,0,0,-0.0195,-0.0185,-0.0165,-0.0163,-0.0174,-0.0145,-0.0141,-0.014,-0.01,-0.0094,-0.0122,-0.0121,-0.0063,-0.0057,-0.0051,-0.0029,-0.0026,-0.0024,-0.0022,0.0043,0.0044,0.0044,0,0,0,0,0,0,-0.0195,-0.0193,-0.0167,-0.0173,-0.0169,-0.0145,-0.0144,-0.0139,-0.0133,-0.0096,-0.009,-0.012,-0.0063,-0.0055,-0.003,-0.0026,-0.0022,-0.002,0.0043,0.0043,0.0044,0.0013,0,0,0,0,0,0,-0.0196,-0.0194,-0.0199,-0.0174,-0.0169,-0.0159,-0.0144,-0.0138,-0.0131,-0.0129,-0.0093,-0.0086,-0.0062,-0.0034,-0.0027,-0.0023,-0.0018,0.0043,0.0043,0.0044,0.0014,0.0012,0.0011,0,0,0,0,0,-0.0197,-0.0205,-0.02,-0.0197,-0.0176,-0.0159,-0.0155,-0.0136,-0.0131,-0.013,-0.0103,-0.0087,-0.0027,-0.0032,-0.0024,-0.0018,0.0043,0.0043,0.0043,0.0015,0.0013,0.0011,0,0,0,0,0,0,-0.0218,-0.0202,-0.0196,-0.0198,-0.0183,-0.0155,-0.0154,-0.0141,-0.012,-0.0119,-0.0084,-0.0076,-0.0053,-0.0032,-0.0038,0.0002,0.0011,0.0013,-0.0014,-0.0016,-0.0017,-0.0029,-0.0016,0,0,0,0,0,-0.0226,-0.0229,-0.0207,-0.021,-0.0204,-0.0181,-0.0173,-0.0161,-0.0138,-0.0129,-0.0102,-0.0073,-0.0044,-0.0028,-0.0003,0.002,0.0046,0.0029,0.0027,0.0026,0.0022,0.0068,0.0071,0.0045,0.0045,0.0045,0,0,-0.0235,-0.0227,-0.0229,-0.0215,-0.0202,-0.0197,-0.0176,-0.0168,-0.016,-0.0124,-0.0107,-0.0079,-0.004,-0.0016,-0.0003,0.0003,0.0046,0.0026,0.0025,0.0022,0.0069,0.0071,0.0074,0.0045,0.0045,0.0045,0,0,-0.0256,-0.0249,-0.0258,-0.0247,-0.0232,-0.0215,-0.0215,-0.0189,-0.0175,-0.0155,-0.0125,-0.0094,-0.0056,-0.0023,-0.0002,0.0005,0.0034,0.001,-0.0002,0.0042,0.0045,0.0047,0.008,0.0085,0.0013,0.0012,0.0012,0,-0.0269,-0.0277,-0.0257,-0.0261,-0.0257,-0.0226,-0.0232,-0.0209,-0.0177,-0.0164,-0.0155,-0.0089,-0.0057,-0.0016,-0.0015,0.0002,0.0026,-0.0,0.004,0.0043,0.0046,0.0079,0.0086,0.0011,0.0011,0.0011,0.0011,0,-0.0293,-0.03,-0.0304,-0.0299,-0.0289,-0.0291,-0.0258,-0.0243,-0.0223,-0.0196,-0.0157,-0.0109,-0.007,-0.0052,-0.0031,0.0007,0.0015,0.003,0.0043,0.0047,0.0081,0.0089,0.0009,0.001,0.001,0.001,0,0,-0.0322,-0.0323,-0.0326,-0.0335,-0.0313,-0.031,-0.0291,-0.0265,-0.0255,-0.0211,-0.0189,-0.0131,-0.0104,-0.0078,-0.0041,0.0,0.0043,0.0018,0.0021,0.0046,0.0132,0.0117,0.0123,0.0064,0.0065,0.0066,0.0146,0,-0.035,-0.0376,-0.0361,-0.0379,-0.039,-0.0355,-0.0343,-0.0313,-0.0277,-0.0245,-0.0179,-0.0147,-0.0113,-0.0096,-0.0047,0.002,0.0061,0.0019,0.0128,0.0131,0.0113,0.0131,0.0069,0.0152,0.0154,0.0155,0.0156,0,-0.0378,-0.0394,-0.0425,-0.043,-0.043,-0.0433,-0.0411,-0.0394,-0.0332,-0.0303,-0.0247,-0.0196,-0.0124,-0.0101,0.0022,-0.0008,0.0055,0.0108,0.0113,0.0113,0.0129,0.0149,0.017,0.0169,0.0168,0.0167,0.0166,0,-0.042,-0.0437,-0.0469,-0.0471,-0.0467,-0.0473,-0.0465,-0.0419,-0.0406,-0.034,-0.032,-0.0224,-0.018,-0.0082,0.0032,0.0027,0.0165,0.0176,0.0223,0.0223,0.0225,0.0222,0.0259,0.0259,0.0259,0.0259,0.0258,0,-0.0455,-0.048,-0.0497,-0.0516,-0.0552,-0.0526,-0.0542,-0.0513,-0.047,-0.0454,-0.036,-0.032,-0.0174,-0.0075,0.0026,0.0147,0.0165,0.0222,0.0245,0.021,0.0204,0.0231,0.0226,0.0262,0.0261,0.026,0.026,0,-0.0492,-0.0503,-0.0545,-0.0565,-0.0576,-0.0602,-0.0607,-0.0608,-0.0559,-0.0532,-0.0513,-0.0387,-0.0254,-0.0107,0.0059,0.0131,0.0252,0.0289,0.0235,0.0254,0.0281,0.0274,0.0349,0.0349,0.0349,0.0349,0.0349,0,-0.0512,-0.054,-0.0594,-0.0629,-0.0645,-0.0677,-0.0697,-0.0663,-0.0655,-0.057,-0.0556,-0.0425,-0.0328,-0.0098,0.005,0.0246,0.0269,0.0323,0.0307,0.0277,0.0292,0.0285,0.0278,0.035,0.035,0.035,0.035,0,-0.0549,-0.0574,-0.061,-0.0688,-0.0731,-0.0765,-0.0784,-0.0784,-0.073,-0.069,-0.0579,-0.0443,-0.0292,-0.0104,0.0049,0.0187,0.0284,0.0325,0.0325,0.0311,0.0279,0.0292,0.0285,0.035,0.035,0.035,0.035,0,-0.0574,-0.0614,-0.067,-0.0731,-0.0793,-0.0828,-0.0834,-0.0805,-0.0782,-0.0678,-0.0645,-0.046,-0.0347,-0.0135,0.0007,0.0143,0.0172,0.0202,0.0209,0.021,0.0144,0.0082,0.0114,0,0,0,0,0,-0.0591,-0.0636,-0.0705,-0.0771,-0.0833,-0.0858,-0.0876,-0.0864,-0.0816,-0.0747,-0.0689,-0.0539,-0.0303,-0.0191,-0.0058,-0.0007,0.0179,0.015,0.0212,0.0353,0.0353,0.0297,0,0,0,0,0,0,-0.0603,-0.0671,-0.0706,-0.0786,-0.0832,-0.0886,-0.0897,-0.0867,-0.0812,-0.0746,-0.0614,-0.0524,-0.0292,-0.0377,-0.0059,-0.0016,0.0036,0.0271,0.0273,0.0354,0.0353,0.0352,0.0295,0,0,0,0,0]}]]